STARLINK-1036, 44741

Orbit data source: Space-Track

STARLINK-1036, 44741 is a payload satellite owned by SpaceX/Seattle (US) in LEO that was launched on Mon, 11 Nov 2019 UTC via an FALCON 9 launch vehicle from the Air Force Eastern Test Range (AFETR). Payload-class satellites include a variety of spacecraft equipped with specific instruments for various scientific and technological missions. These include communications satellites like Starlink; space stations such as the ISS; scientific satellites like the Hubble; Earth observation satellites from companies like Planet Labs, Umbra, and HawkEye 360; GPS; miniature CubeSats for education and research; and military/defense satellites.

Loading next visibility...
Identifier
44741, 2019-074AE
Orbit
LEO
Country
Flag of USUS
Related business
Manufacturer
SpaceX/Seattle
Mission
Operational Commercial Communications
Bus & Motor
STARLINK, Unknown motor
Mass
260 kg wet, ~248 kg dry
Launch date (UTC)
2019-11-11 (6 years ago)
Launch vehicle
FALCON 9
Launch site
Air Force Eastern Test Range (AFETR)
Object type
Payload
Rocket body
Debris
Shape & HBR
Box + 1 Pan, 10.1 m
Radar Cross Section
13.562 m², Large (>1 m²)

Expand to show TLE details & history
Last TLE update: 18 hours ago

TLE from 18 hours ago
0 STARLINK-1036
1 44741U 19074AE  25286.35768224 -.00003471  00000-0 -21421-3 0  9991
2 44741  53.0552 148.0185 0001868  96.4883 263.6319 15.06401593326263
Epoch: 2025-10-13T08:35Z
TLE epoch observation values (Epoch: 2025-10-13T08:35:03.745Z)
Latitude
-0°
Longitude
-2.90872°
Altitude
548.23 km
Speed
7.589 km/s
True Right ascension
09h 52m 04s
True Declination
0° 00' 00"
Sunlit
Object was in daylight at epoch
Visualization orbit readout
Latitude
Unknown
Longitude
Unknown
Altitude
Unknown
Speed
Unknown
Apparent Right ascension
Unknown
Apparent Declination
Unknown
Sunlit
N/A
Visualization observer readout
Local Sidereal Time
21:23:26
Azimuth
Unknown
Elevation
Unknown
Doppler factor
Unknown
Orbital elements
Apogee altitude
548.771 km
Perigee altitude
546.184 km
Semi-major axis
6,925.614 km
Eccentricity
0.00019
Inclination
53.0552°
RAAN
148.0185°
Arg. of periapsis
96.4883°
True anomaly
263.61063°
Mean anomaly
263.6319°
Eccentric anomaly
263.62126°
Mean motion
3.76579 °/min
Orbital period
95.6 mins
BSTAR
-0.00021421
Loading maneuver chart data...
Computing Atmospheric mass density...
Loading historical data...
Loading historical data...
Loading historical data...
Loading historical data...
Loading historical data...
Loading historical data...
Loading historical data...

Documentation

Showing up to 5 results
|